142  
NZUS99 KTBW 010118  
RWRTPA  
FLORIDA REGIONAL WEATHER ROUNDUP  
NATIONAL WEATHER SERVICE TAMPA BAY RUSKIN FL  
900 PM EDT SAT OCT 31 2020  
 
NOTE: "FAIR" INDICATES FEW OR NO CLOUDS BELOW 12,000 FEET WITH NO  
SIGNIFICANT WEATHER AND/OR S TO VISIBILITY
.  
 
 
STATION/POSITION
 
 
 
FLZ042-048>051-055-056-060-061-010200-  
EXTRA STATIONS  
 
CITY SKY/WX TMP DP RH WIND PRES REMARKS
 
EVERGLADES CTY NOT AVBL  
CRYSTAL RIVER FAIR 68 63 83 CALM 30.13R  
SEBRING CLOUDY 77 73 87 E7 30.13R  
EGLIN AFB FAIR 62 54 74 CALM 30.17R  
CANAVERAL CLEAR 78 70 74 E15 30.12R  
 

 
FLZ001>010-012>015-010200-  
PANHANDLE FLORIDA  
 
CITY SKY/WX TMP DP RH WIND PRES REMARKS
 
PENSACOLA LGT RAIN 63 57 81 CALM 30.17R  
PENSACOLA NAS CLEAR 59 56 89 CALM 30.16S  
MILTON NAS CLEAR 57 56 96 NW3 30.18R  
VALPARAISO PTCLDY 64 58 80 CALM 30.17R  
MARY ESTHER MOCLDY 63 56 78 N6 30.15R  
PANAMA CITY FAIR 67 62 84 N6 30.15R  
TYNDALL AFB MOCLDY 69 62 79 NE8 30.15R  
APALACHICOLA CLEAR 66 64 93 NE3 30.15S  
 
STATION/POSITION
 
 
28.8N 86.0W  
28.5N 84.5W  
 

 
FLZ011-016>039-010200-  
NORTH FLORIDA  
 
CITY SKY/WX TMP DP RH WIND PRES REMARKS
 
MARIANNA PTCLDY 65 59 81 NE7 30.16S  
TALLAHASSEE CLEAR 70 62 76 NE8 30.17R  
CROSS CITY CLEAR 69 65 87 NE7 30.16R  
GAINESVILLE CLEAR 69 68 96 NE6 30.18R  
MAYPORT NAS CLOUDY 76 69 79 SE18G24 30.17R  
JACKSONVILLE MOCLDY 71 70 96 NE3 30.16S  
JAX NAS LGT RAIN 74 70 87 SE16 30.17R  
JAX CRAIG CLOUDY 76 69 79 SE10G18 30.17R  
ST AUGUSTINE CLEAR 75 70 84 SE17 30.17S  
 
STATION/POSITION
 
 
KEATON BEACH  
31.4N 80.9W  
ST AUGUSTINE  
 

 
FLZ040-043>046-052-053-057-058-063-010200-  
CENTRAL FLORIDA  
 
CITY SKY/WX TMP DP RH WIND PRES REMARKS
 
OCALA CLEAR 73 65 75 E5 30.15R  
LEESBURG CLEAR 74 66 76 E7 30.15R  
SANFORD CLEAR 72 65 78 E5 30.14R  
ORLANDO EXEC CLEAR 75 68 78 E6 30.14R  
ORLANDO INTL PTCLDY 75 68 78 NE7 30.14R  
KISSIMMEE PTCLDY 77 70 79 E8 30.14R  
WINTER HAVEN CLOUDY 78 68 71 E8 30.14R  
LAKELAND CLOUDY 79 68 69 E6 30.13R  
BARTOW CLOUDY 77 70 78 E6 30.13S  
 

 
FLZ041-047-054-059-064-010200-  
EAST CENTRAL FLORIDA  
 
CITY SKY/WX TMP DP RH WIND PRES REMARKS
 
DAYTONA BEACH LGT RAIN 75 68 78 SE5 30.14S  
JFK SPACE CTR PTCLDY 78 70 76 SE8G24 30.13S  
TITUSVILLE PTCLDY 81 70 69 E5 30.14S  
PATRICK AFB CLEAR 80 67 64 E16 30.12S  
MELBOURNE MOCLDY 80 71 74 E14 30.11R  
VERO BEACH CLOUDY 80 72 76 E13G21 30.11R  
FT PIERCE MOCLDY 78 73 84 E13 30.11R  
STUART MOCLDY 81 72 74 E15G21 30.11R  
 
STATION/POSITION
 
 
28.9N 78.5W  
 

 
FLZ042-048>051-055-056-060-061-010200-  
WEST CENTRAL FLORIDA  
 
CITY SKY/WX TMP DP RH WIND PRES REMARKS
 
BROOKSVILLE CLEAR 72 62 71 E6 30.13R  
TAMPA MOCLDY 81 65 58 E5 30.12R  
MACDILL AFB DRIZZLE 79 68 69 SE8 30.11R  
ST PETERSBURG CLOUDY 80 68 66 E8 30.11R  
ST PET-WHITTED CLOUDY 80 72 76 E12 30.10R  
SARASOTA CLOUDY 78 70 76 E9 30.09R  
 
STATION/POSITION
 
 
CEDAR KEY  
28.5N 84.5W  
VENICE  
 

 
FLZ062-065-066-069-070-075>078-010200-  
SOUTHWEST FLORIDA AND KEYS  
 
CITY SKY/WX TMP DP RH WIND PRES REMARKS
 
PUNTA GORDA CLOUDY 76 73 91 E7 30.12R  
FT MYERS CLEAR 77 74 90 NE8 30.09R  
SOUTHWEST INTL PTCLDY 77 72 84 E9 30.09R  
NAPLES CLEAR 79 73 82 E10 30.07R  
MARATHON CLEAR 82 75 79 NE12 30.04S  
KEY WEST NAS PTCLDY 86 75 69 E14 30.05R HX 95  
KEY WEST INTL CLEAR 82 74 76 E12 30.05R  
 
STATION/POSITION
 
 
VENICE  
26.0N 85.6W  
SAND KEY  
 

 
FLZ067-068-071>074-010200-  
SOUTHEAST FLORIDA  
 
CITY SKY/WX TMP DP RH WIND PRES REMARKS
 
W PALM BEACH PTCLDY 82 73 74 E17G23 30.10R  
POMPANO BEACH MOCLDY 81 74 79 E14 30.08R  
FT LAUDER-EXEC PTCLDY 80 75 84 E12 30.08R  
FT LAUDERDALE PTCLDY 81 77 88 E14 30.07R  
PEMBROKE PINES MOCLDY 79 78 97 E8 30.09S  
OPA LOCKA MOCLDY 75 72 90 N3 30.08S  
MIAMI CLOUDY 78 75 90 CALM 30.07R  
WEST KENDALL N/A N/A N/A N/A MISG 30.08R  
HOMESTEAD PTCLDY 81 75 82 NE12 30.06R  
 
STATION/POSITION
 
 
LAKE WORTH  
FOWEY ROCKS  
SETTLEMENT POINT  
 

 
 
 
CLICK HERE TO GO TO PREVIOUS BULLETINS.

The Nexlab FL Page Main Text Page